Regional Weather Roundup
Issued by NWS Newport/Morehead, NC

Current Version | Previous Version | Graphics & Text | Print | Product List | Glossary Off
Versions: 1 2 3 4 5 6 7 8 9 10 11 12 13 14 15 16 17 18 19 20 21 22 23 24 25 26 27 28 29 30 31 32 33 34 35 36 37 38 39 40 41 42 43 44 45 46 47 48 49 50

000
ASUS42 KMHX 240322
RWRMHX
WEATHER ROUNDUP FOR EASTERN NORTH CAROLINA
NATIONAL WEATHER SERVICE NEWPORT/MOREHEAD CITY NC
1100 PM EDT THU OCT 23 2014

NOTE: "FAIR" INDICATES FEW OR NO CLOUDS BELOW 12,000 FEET
WITH NO SIGNIFICANT WEATHER AND/OR OBSTRUCTIONS TO VISIBILITY

NCZ015>017-031-032-045>047-102-103-240400-
NORTH COAST

CITY           SKY/WX    TMP DP  RH WIND       PRES   REMARKS
EDENTON        CLEAR     52  50  93 CALM      29.95S
ELIZABETH CITY CLEAR     55  47  74 W6        29.93S
KITTY HAWK     CLEAR     59  49  70 W3        29.91F
MANTEO         CLEAR     60  49  67 NW6       29.93S

$$

NCZ045>047-081-094-103-104-240400-
CENTRAL COAST

CITY           SKY/WX    TMP DP  RH WIND       PRES   REMARKS
FRISCO         CLEAR     62  51  67 NW12G20   29.95R
SWANQUARTER    NOT AVBL

$$

NCZ095-097-098-100-101-240400-
SOUTHERN COAST

CITY           SKY/WX    TMP DP  RH WIND       PRES   REMARKS
BEAUFORT       CLEAR     59  50  72 NW9       29.98R
CEDAR ISLAND   NOT AVBL
JACKSONVILLE   CLEAR     52  48  86 W7        29.99R
PINEY ISLAND   CLOUDY    59  52  77 SW6       29.96S
WILMINGTON     CLEAR     55  48  77 W7        30.01R


$$

NCZ011>013-027>030-043-044-078>080-089-090>093-098-240400-
COASTAL PLAIN

CITY           SKY/WX    TMP DP  RH WIND       PRES   REMARKS
AHOSKIE        CLEAR     48  46  91 CALM      29.98R
CLINTON        CLEAR     50  49  97 CALM      30.01R
ELIZABETHTOWN  CLEAR     56  46  70 NW5       30.01S
GOLDSBORO      CLEAR     56  52  87 NW5       29.98R
GREENVILLE     CLEAR     55  46  71 CALM      30.00R
HAVELOCK       CLEAR     53  48  83 W5        29.99R
KENANSVILLE    CLEAR     52  46  80 W3        30.01R
KINSTON        CLEAR     54  47  77 CALM      30.00R
NEW BERN       CLEAR     56  48  74 W3        30.00R
RICHLANDS      CLEAR     46  43  87 CALM      30.00R
ROCKY MOUNT    CLEAR     56  45  66 NW8       30.00R
WASHINGTON     CLEAR     51  46  84 CALM      29.99R
WHITEVILLE     CLEAR     53  46  77 CALM      30.01S

$$

AMZ130-135-150-152-154-156-158-170-250-252-270-ANZ085-086-088-633-658-670-240400-
MARINE OBSERVATIONS

STATION/POSITION TIME  TEMP    WIND        PRES    WAVE   SWELL
                       AIR SEA DIR/SP/G            HT/PER HT/PER
                 (UTC) (F)     (DEG/KT/KT) (MB)    (FT/S) (FT/S)
CHESAPEAKE LIGHT 0300   63     300/ 20/ 22 1013.0
64 E VA BEACH    0300   65 66  330/ 23/ 29 1010.5    7/ 6
DUCK             0300   60 66  290/  9/ 11 1012.3
2 E DUCK         0300                        N/A     4/ 7
10 NE DUCK       0300      68                N/A     6/ 7
OREGON INLET     0300   60 64  300/  7/ 11 1013.3
13E OREGON INLT  0300      70                N/A     6/ 8   2/11
HATTERAS CG      0300   64 63  330/ 18/ 21 1014.6
DIAMOND BUOY     0300   66     300/ 19/ 23 1013.6    5/ 5   2/ 9
17 S OCRACOKE    0200                      1014.3
CAPE LOOKOUT     0300   66     300/ 12/ 14 1014.8
BEAUFORT LAB     0300   61 68  320/  4/  9 1014.3
30 SE NEW RIVER  0300   69 75  310/ 14/ 17 1014.7    3/ 9   2/ 9
5 SE WRIGHTSVLE  0300   61 72  300/ 14/ 16   N/A
225 S CAPE HAT   0224   70 78  290/ 12/ 16 1015.8    7/11   7/11
41 SE CHARLESTON 0300   69 78  310/ 12/ 16 1016.5    2/ 9   2/ 9

$$



USA.gov is the U.S. government's official web portal to all federal, state and local government web resources and services.